| time (UTC) | temp F | wind direction | speed knots | gust knots | rain 1hr in | rain 24hr in | rain mn in | humidity % | barometer mb |
| 20260504232027 | 50 | 159 | 0.0 | 0.0 | 0.00 | 0.79 | 0.00 | 98 | |
| 20260504231027 | 50 | 159 | 0.0 | 0.0 | 0.00 | 0.79 | 0.00 | 98 | |
| 20260504230057 | 50 | 159 | 0.0 | 0.0 | 0.00 | 0.79 | 0.00 | 98 | |
| 20260504225027 | 50 | 159 | 0.0 | 0.0 | 0.00 | 0.79 | 0.00 | 98 | |
| 20260504224027 | 50 | 159 | 0.0 | 0.0 | 0.00 | 0.79 | 0.00 | 98 | |
| 20260504223047 | 51 | 159 | 0.0 | 0.0 | 0.00 | 0.79 | 0.00 | 98 | |
| 20260504222048 | 51 | 159 | 0.0 | 0.0 | 0.00 | 0.79 | 0.00 | 98 | |
| 20260504221027 | 51 | 159 | 0.0 | 0.0 | 0.00 | 0.79 | 0.00 | 98 | |
| 20260504220027 | 51 | 159 | 0.0 | 0.0 | 0.00 | 0.79 | 0.00 | 98 | |
| 20260504215027 | 51 | 155 | 0.0 | 0.0 | 0.00 | 0.79 | 0.79 | 97 | |
| 20260504214027 | 51 | 155 | 0.0 | 0.0 | 0.00 | 0.79 | 0.79 | 97 | |
| 20260504213027 | 51 | 135 | 0.0 | 0.0 | 0.00 | 0.79 | 0.79 | 97 | |
| 20260504212027 | 51 | 135 | 0.0 | 0.0 | 0.00 | 0.79 | 0.79 | 96 | |
| 20260504211028 | 51 | 157 | 0.0 | 0.0 | 0.00 | 0.79 | 0.79 | 97 | |
| 20260504210028 | 51 | 140 | 0.0 | 0.0 | 0.00 | 0.79 | 0.79 | 96 | |
| 20260504205027 | 51 | 143 | 0.0 | 0.0 | 0.00 | 0.79 | 0.79 | 96 | |
| 20260504204048 | 51 | 157 | 0.0 | 0.0 | 0.00 | 0.79 | 0.79 | 96 | |
| 20260504203028 | 51 | 154 | 0.0 | 0.0 | 0.00 | 0.79 | 0.79 | 96 | |
| 20260504202027 | 51 | 154 | 0.0 | 0.0 | 0.00 | 0.79 | 0.79 | 97 | |
| 20260504201048 | 51 | 153 | 0.0 | 0.0 | 0.00 | 0.79 | 0.79 | 96 | |
| 20260504200048 | 51 | 143 | 0.0 | 0.0 | 0.00 | 0.79 | 0.79 | 96 | |
| 20260504195027 | 51 | 147 | 0.0 | 0.0 | 0.00 | 0.79 | 0.79 | 96 | |
| 20260504194028 | 50 | 165 | 0.0 | 0.0 | 0.00 | 0.79 | 0.79 | 97 | |
| 20260504193027 | 50 | 153 | 0.0 | 0.0 | 0.00 | 0.79 | 0.79 | 97 | |
| 20260504192048 | 50 | 154 | 0.0 | 0.0 | 0.00 | 0.79 | 0.79 | 96 | |
| 20260504191048 | 51 | 153 | 0.0 | 0.0 | 0.00 | 0.79 | 0.79 | 96 | |
| 20260504190048 | 51 | 143 | 0.0 | 0.0 | 0.00 | 0.94 | 0.79 | 96 | |
| 20260504185028 | 51 | 146 | 0.0 | 0.0 | 0.00 | 0.94 | 0.79 | 96 | |
| 20260504184027 | 52 | 148 | 0.0 | 0.0 | 0.00 | 0.94 | 0.79 | 95 | |
| 20260504183028 | 52 | 148 | 0.0 | 0.0 | 0.08 | 0.94 | 0.79 | 95 | |
| 20260504182028 | 52 | 148 | 0.0 | 0.0 | 0.08 | 0.94 | 0.79 | 95 | |
| 20260504181048 | 52 | 153 | 0.0 | 0.0 | 0.16 | 0.94 | 0.79 | 94 | |
| 20260504180028 | 52 | 173 | 0.0 | 0.0 | 0.16 | 0.94 | 0.79 | 94 | |
| 20260504175028 | 52 | 149 | 0.0 | 0.0 | 0.24 | 0.94 | 0.79 | 94 | |
| 20260504174028 | 52 | 149 | 0.0 | 0.0 | 0.24 | 0.94 | 0.79 | 93 | |
| 20260504173028 | 52 | 156 | 0.0 | 0.0 | 0.24 | 0.87 | 0.71 | 94 | |
| 20260504172048 | 52 | 152 | 0.0 | 0.0 | 0.31 | 0.87 | 0.71 | 94 | |
| 20260504171108 | 52 | 143 | 0.0 | 0.0 | 0.31 | 0.79 | 0.63 | 94 | |
| 20260504160128 | 58 | 241 | 0.0 | 0.0 | 0.00 | 0.47 | 0.31 | 89 | |
| 20260504151028 | 61 | 236 | 0.0 | 0.0 | 0.00 | 0.47 | 0.31 | 84 | |
| 20260504141028 | 62 | 234 | 0.0 | 0.0 | 0.00 | 0.47 | 0.31 | 85 | |
| 20260504081109 | 67 | 140 | 0.0 | 0.0 | 0.00 | 0.24 | 0.08 | 74 | |
| 20260504045030 | 54 | 162 | 0.0 | 0.0 | 0.00 | 0.16 | 0.00 | 99 | |
| 20260504044029 | 54 | 163 | 0.0 | 0.0 | 0.00 | 0.16 | 0.00 | 99 | |
| 20260504043030 | 55 | 163 | 0.0 | 0.0 | 0.00 | 0.16 | 0.00 | 99 | |
| 20260504042030 | 55 | 163 | 0.0 | 0.0 | 0.00 | 0.16 | 0.00 | 99 | |
| 20260504041029 | 55 | 163 | 0.0 | 0.0 | 0.00 | 0.16 | 0.00 | 99 | |
| 20260504040030 | 55 | 163 | 0.0 | 0.0 | 0.00 | 0.16 | 0.00 | 99 | |
| 20260504035031 | 54 | 159 | 0.0 | 0.0 | 0.00 | 0.16 | 0.00 | 99 | |
| 20260504034030 | 54 | 167 | 0.0 | 0.0 | 0.00 | 0.16 | 0.00 | 99 | |
| 20260504033050 | 54 | 166 | 0.0 | 0.0 | 0.00 | 0.16 | 0.00 | 99 | |
| 20260504032030 | 54 | 165 | 0.0 | 0.0 | 0.00 | 0.16 | 0.00 | 99 | |
| 20260504031030 | 54 | 132 | 0.0 | 0.0 | 0.00 | 0.16 | 0.00 | 99 | |
| 20260504030050 | 54 | 132 | 0.0 | 0.0 | 0.00 | 0.16 | 0.00 | 99 | |
| 20260504025030 | 54 | 128 | 0.0 | 0.0 | 0.00 | 0.16 | 0.00 | 99 | |
| 20260504024030 | 54 | 128 | 0.0 | 0.0 | 0.00 | 0.16 | 0.00 | 99 | |
| 20260504023050 | 53 | 128 | 0.0 | 0.0 | 0.00 | 0.16 | 0.00 | 99 | |
| 20260504022030 | 53 | 128 | 0.0 | 0.0 | 0.00 | 0.16 | 0.00 | 99 | |
| 20260504021030 | 53 | 128 | 0.0 | 0.0 | 0.00 | 0.16 | 0.00 | 99 | |
| 20260504020029 | 52 | 128 | 0.0 | 0.0 | 0.00 | 0.16 | 0.00 | 99 | |
| 20260504015030 | 53 | 128 | 0.0 | 0.0 | 0.00 | 0.16 | 0.00 | 99 | |
| 20260504014030 | 53 | 128 | 0.0 | 0.0 | 0.00 | 0.16 | 0.00 | 99 | |
| 20260504013030 | 52 | 128 | 0.0 | 0.0 | 0.00 | 0.16 | 0.00 | 99 | |
| 20260504012030 | 53 | 128 | 0.0 | 0.0 | 0.00 | 0.16 | 0.00 | 99 | |
| 20260504011100 | 53 | 128 | 0.0 | 0.0 | 0.00 | 0.16 | 0.00 | 99 | |
| 20260504010030 | 53 | 128 | 0.0 | 0.0 | 0.00 | 0.16 | 0.00 | 99 | |
| 20260504005030 | 53 | 128 | 0.0 | 0.0 | 0.00 | 0.16 | 0.00 | 99 | |
| 20260504004030 | 54 | 128 | 0.0 | 0.0 | 0.00 | 0.16 | 0.00 | 99 | |
| 20260504003030 | 54 | 127 | 0.0 | 0.0 | 0.00 | 0.16 | 0.00 | 99 | |
| 20260504002030 | 54 | 127 | 0.0 | 0.0 | 0.00 | 0.16 | 0.00 | 99 | |
| 20260504001030 | 54 | 127 | 0.0 | 0.0 | 0.00 | 0.16 | 0.00 | 99 | |
| 20260504000030 | 54 | 127 | 0.0 | 0.0 | 0.00 | 0.16 | 0.00 | 99 | |
| 20260503235030 | 54 | 127 | 0.0 | 0.0 | 0.00 | 0.16 | 0.00 | 99 | |
| 20260503234030 | 54 | 127 | 0.0 | 0.0 | 0.00 | 0.16 | 0.00 | 99 | |
| 20260503233031 | 54 | 127 | 0.0 | 0.0 | 0.00 | 0.16 | 0.00 | 99 | |
| 20260503232030 | 54 | 127 | 0.0 | 0.0 | 0.00 | 0.16 | 0.00 | 99 |